BAW1003 LSGG-LIRF

Flight info

Callsign BAW1003
Flight time 0h 57m
Altitude 35000
Route MEDAM DCT NITAM DCT MOGBO DCT ELB DCT ELKAP
Aircraft B789/H-SDE1E2E3FGHIJ2J3J4J5M1RWXY/LB1D1

Departure

Time 2026-02-18 05:53
Airport Geneva International Airport (LSGG)

Arrival

Time 2026-02-18 06:51
Airport Rome–Fiumicino Leonardo da Vinci International Airport (LIRF)
Time Latitude Longitude Altitude Speed Heading
2026-02-18 05:39 46.22990 6.10479 1397 ft 0 kts 134°
2026-02-18 05:40 46.22997 6.10469 1407 ft 2 kts 132°
2026-02-18 05:40 46.23008 6.10448 1406 ft 3 kts 101°
2026-02-18 05:41 46.23007 6.10424 1406 ft 3 kts 54°
2026-02-18 05:41 46.22994 6.10403 1406 ft 3 kts 44°
2026-02-18 05:41 46.22987 6.10393 1407 ft 1 kts 46°
2026-02-18 05:41 46.22985 6.10391 1407 ft 0 kts 46°
2026-02-18 05:47 46.23000 6.10413 1406 ft 6 kts 46°
2026-02-18 05:48 46.23023 6.10449 1404 ft 9 kts 46°
2026-02-18 05:48 46.23096 6.10555 1404 ft 21 kts 45°
2026-02-18 05:48 46.23144 6.10586 1402 ft 8 kts
2026-02-18 05:48 46.23179 6.10590 1401 ft 8 kts
2026-02-18 05:49 46.23233 6.10584 1400 ft 7 kts 334°
2026-02-18 05:49 46.23271 6.10538 1399 ft 8 kts 317°
2026-02-18 05:49 46.23321 6.10539 1401 ft 9 kts 32°
2026-02-18 05:49 46.23390 6.10622 1399 ft 18 kts 41°
2026-02-18 05:50 46.23493 6.10768 1382 ft 25 kts 45°
2026-02-18 05:50 46.23613 6.10945 1381 ft 24 kts 46°
2026-02-18 05:50 46.23778 6.11189 1382 ft 40 kts 45°
2026-02-18 05:51 46.24162 6.11755 1369 ft 38 kts 44°
2026-02-18 05:51 46.24336 6.12008 1369 ft 33 kts 46°
2026-02-18 05:51 46.24558 6.12330 1371 ft 53 kts 46°
2026-02-18 05:51 46.24763 6.12631 1364 ft 31 kts 44°
2026-02-18 05:52 46.24909 6.12716 1364 ft 19 kts 12°
2026-02-18 05:52 46.24991 6.12652 1364 ft 10 kts 269°
2026-02-18 05:52 46.24963 6.12591 1363 ft 7 kts 230°
2026-02-18 05:52 46.24919 6.12525 1364 ft 13 kts 224°
2026-02-18 05:53 46.24859 6.12439 1366 ft 22 kts 226°
2026-02-18 05:53 46.24542 6.11974 1374 ft 107 kts 225°
2026-02-18 05:53 46.23832 6.10939 1406 ft 178 kts 224°
2026-02-18 05:53 46.22958 6.09699 2260 ft 171 kts 224°
2026-02-18 05:54 46.22092 6.08611 3256 ft 158 kts 219°
2026-02-18 05:54 46.21329 6.07503 3934 ft 163 kts 227°
2026-02-18 05:54 46.20560 6.06191 4375 ft 179 kts 226°
2026-02-18 05:55 46.18761 6.03488 5285 ft 203 kts 224°
2026-02-18 05:55 46.17759 6.02030 5757 ft 211 kts 224°
2026-02-18 05:55 46.16713 6.00498 6236 ft 216 kts 225°
2026-02-18 05:55 46.15644 5.98928 6687 ft 221 kts 226°
2026-02-18 05:56 46.14544 5.97315 7090 ft 232 kts 223°
2026-02-18 05:56 46.13093 5.96148 7370 ft 255 kts 199°
2026-02-18 05:56 46.11272 5.96110 7694 ft 274 kts 169°
2026-02-18 05:56 46.09591 5.97505 8013 ft 283 kts 136°
2026-02-18 05:57 46.08538 5.99919 8384 ft 289 kts 119°
2026-02-18 05:57 46.07671 6.02551 8736 ft 296 kts 116°
2026-02-18 05:57 46.06816 6.05279 9101 ft 301 kts 116°
2026-02-18 05:57 46.05912 6.08036 9469 ft 305 kts 117°
2026-02-18 05:58 46.04980 6.10808 9835 ft 310 kts 117°
2026-02-18 05:58 46.03755 6.13335 10151 ft 308 kts 142°
2026-02-18 05:58 46.02075 6.15243 10475 ft 308 kts 147°
2026-02-18 05:59 45.98612 6.18849 11121 ft 308 kts 147°
2026-02-18 05:59 45.96867 6.20695 11456 ft 318 kts 146°
2026-02-18 05:59 45.95033 6.22646 11833 ft 334 kts 146°
2026-02-18 05:59 45.93084 6.24704 12225 ft 361 kts 146°
2026-02-18 06:00 45.91077 6.26816 12597 ft 387 kts 146°
2026-02-18 06:00 45.88827 6.29187 13029 ft 410 kts 146°
2026-02-18 06:00 45.86503 6.31654 13438 ft 419 kts 146°
2026-02-18 06:00 45.84187 6.34133 13855 ft 420 kts 145°
2026-02-18 06:01 45.81824 6.36655 14200 ft 425 kts 146°
2026-02-18 06:01 45.79431 6.39189 14543 ft 429 kts 146°
2026-02-18 06:01 45.77015 6.41747 14863 ft 433 kts 146°
2026-02-18 06:01 45.74568 6.44342 15211 ft 437 kts 146°
2026-02-18 06:02 45.72109 6.46946 15535 ft 440 kts 146°
2026-02-18 06:02 45.69637 6.49557 15874 ft 444 kts 146°
2026-02-18 06:02 45.67173 6.52154 16202 ft 446 kts 146°
2026-02-18 06:03 45.62119 6.57486 16885 ft 453 kts 146°
2026-02-18 06:03 45.59551 6.60188 17239 ft 458 kts 147°
2026-02-18 06:03 45.57014 6.62852 17557 ft 460 kts 147°
2026-02-18 06:03 45.54408 6.65585 17928 ft 468 kts 147°
2026-02-18 06:04 45.51766 6.68352 18274 ft 471 kts 147°
2026-02-18 06:04 45.49113 6.71138 18571 ft 473 kts 147°
2026-02-18 06:04 45.46458 6.73915 18877 ft 472 kts 147°
2026-02-18 06:04 45.43760 6.76596 19192 ft 469 kts 149°
2026-02-18 06:05 45.41188 6.79204 19478 ft 455 kts 148°
2026-02-18 06:05 45.38563 6.81900 19892 ft 468 kts 148°
2026-02-18 06:05 45.35873 6.84593 20421 ft 477 kts 149°
2026-02-18 06:05 45.33149 6.87287 21019 ft 485 kts 149°
2026-02-18 06:06 45.30368 6.90064 21578 ft 492 kts 149°
2026-02-18 06:06 45.27552 6.92901 22222 ft 498 kts 148°
2026-02-18 06:06 45.24882 6.96128 22821 ft 507 kts 139°
2026-02-18 06:07 45.19820 7.03142 24000 ft 515 kts 139°
2026-02-18 06:07 45.17239 7.06694 24554 ft 517 kts 140°
2026-02-18 06:07 45.14642 7.10247 25076 ft 519 kts 140°
2026-02-18 06:07 45.12044 7.13808 25635 ft 520 kts 139°
2026-02-18 06:08 45.09672 7.17659 26225 ft 525 kts 128°
2026-02-18 06:08 45.07568 7.21885 26788 ft 526 kts 128°
2026-02-18 06:08 45.05473 7.26135 27374 ft 525 kts 127°
2026-02-18 06:08 45.03384 7.30360 27986 ft 524 kts 128°
2026-02-18 06:09 45.01297 7.34536 28598 ft 523 kts 128°
2026-02-18 06:09 44.99192 7.38739 29231 ft 523 kts 129°
2026-02-18 06:09 44.96866 7.42631 29879 ft 515 kts 140°
2026-02-18 06:09 44.94318 7.46214 30440 ft 514 kts 139°
2026-02-18 06:10 44.91778 7.49762 30991 ft 513 kts 140°
2026-02-18 06:10 44.89235 7.53302 31548 ft 511 kts 140°
2026-02-18 06:10 44.86708 7.56833 32142 ft 510 kts 140°
2026-02-18 06:11 44.81703 7.63814 33323 ft 505 kts 140°
2026-02-18 06:11 44.79207 7.67281 33923 ft 503 kts 141°
2026-02-18 06:11 44.76714 7.70742 34456 ft 500 kts 140°
2026-02-18 06:11 44.74262 7.74145 34900 ft 500 kts 140°
2026-02-18 06:12 44.71754 7.77613 34942 ft 509 kts 140°
2026-02-18 06:12 44.69193 7.81150 34945 ft 520 kts 140°
2026-02-18 06:12 44.66584 7.84757 34955 ft 530 kts 140°
2026-02-18 06:13 44.61275 7.92084 34968 ft 542 kts 140°
2026-02-18 06:13 44.55883 7.99498 34962 ft 543 kts 140°
2026-02-18 06:14 44.50451 8.06947 34970 ft 543 kts 140°
2026-02-18 06:14 44.45083 8.14287 34965 ft 543 kts 140°
2026-02-18 06:15 44.36944 8.25380 34964 ft 542 kts 140°
2026-02-18 06:15 44.31550 8.32704 34964 ft 543 kts 140°
2026-02-18 06:16 44.26094 8.40093 34956 ft 548 kts 140°
2026-02-18 06:16 44.20645 8.47458 34950 ft 547 kts 140°
2026-02-18 06:17 44.15164 8.54838 34944 ft 547 kts 140°
2026-02-18 06:17 44.09678 8.62210 34942 ft 547 kts 140°
2026-02-18 06:18 44.04221 8.69520 34935 ft 548 kts 140°
2026-02-18 06:19 43.95956 8.80557 34946 ft 550 kts 140°
2026-02-18 06:19 43.90446 8.87890 34946 ft 550 kts 140°
2026-02-18 06:20 43.84913 8.95233 34933 ft 550 kts 140°
2026-02-18 06:20 43.79370 9.02570 34935 ft 551 kts 140°
2026-02-18 06:21 43.73834 9.09878 34956 ft 552 kts 140°
2026-02-18 06:21 43.68247 9.17232 34947 ft 553 kts 140°
2026-02-18 06:22 43.62662 9.24567 34943 ft 552 kts 140°
2026-02-18 06:22 43.57115 9.31828 34945 ft 552 kts 140°
2026-02-18 06:23 43.48752 9.42743 34951 ft 552 kts 140°
2026-02-18 06:23 43.43151 9.50025 34939 ft 555 kts 140°
2026-02-18 06:24 43.37548 9.57296 34967 ft 557 kts 140°
2026-02-18 06:24 43.31903 9.64599 34970 ft 556 kts 140°
2026-02-18 06:25 43.26254 9.71888 34982 ft 556 kts 140°
2026-02-18 06:25 43.20649 9.79100 34953 ft 555 kts 140°
2026-02-18 06:26 43.15008 9.86340 34992 ft 555 kts 140°
2026-02-18 06:27 43.06528 9.97188 34995 ft 557 kts 140°
2026-02-18 06:27 43.00853 10.04423 34990 ft 557 kts 140°
2026-02-18 06:28 42.95185 10.11631 34971 ft 555 kts 141°
2026-02-18 06:28 42.89567 10.18755 34974 ft 554 kts 141°
2026-02-18 06:29 42.83896 10.25928 34993 ft 556 kts 141°
2026-02-18 06:29 42.78302 10.33157 35007 ft 559 kts 133°
2026-02-18 06:29 42.75934 10.37424 34665 ft 567 kts 122°
2026-02-18 06:30 42.74139 10.42196 33854 ft 568 kts 110°
2026-02-18 06:30 42.73009 10.47339 32937 ft 564 kts 98°
2026-02-18 06:30 42.72556 10.52554 32063 ft 557 kts 90°
2026-02-18 06:31 42.71646 10.63005 30377 ft 558 kts 104°
2026-02-18 06:31 42.70301 10.67949 29462 ft 556 kts 115°
2026-02-18 06:31 42.68424 10.72461 28521 ft 552 kts 122°
2026-02-18 06:31 42.66411 10.76904 27588 ft 548 kts 122°
2026-02-18 06:32 42.64392 10.81275 26676 ft 544 kts 122°
2026-02-18 06:32 42.62384 10.85611 25804 ft 540 kts 122°
2026-02-18 06:32 42.60398 10.89940 24986 ft 534 kts 122°
2026-02-18 06:32 42.58466 10.94158 24201 ft 529 kts 122°
2026-02-18 06:33 42.56520 10.98373 23399 ft 523 kts 122°
2026-02-18 06:33 42.54594 11.02528 22484 ft 517 kts 122°
2026-02-18 06:33 42.53330 11.05258 21893 ft 512 kts 122°
2026-02-18 06:33 42.51446 11.09333 21019 ft 506 kts 122°
2026-02-18 06:34 42.48985 11.14644 19908 ft 497 kts 121°
2026-02-18 06:34 42.47746 11.17309 19354 ft 493 kts 121°
2026-02-18 06:34 42.45998 11.21199 18541 ft 485 kts 116°
2026-02-18 06:35 42.44169 11.29768 16851 ft 463 kts 95°
2026-02-18 06:35 42.43790 11.34010 16152 ft 452 kts 93°
2026-02-18 06:35 42.43409 11.38203 15452 ft 444 kts 96°
2026-02-18 06:35 42.42829 11.42277 14757 ft 436 kts 100°
2026-02-18 06:36 42.42192 11.46249 14145 ft 426 kts 99°
2026-02-18 06:36 42.41661 11.50148 13513 ft 417 kts 97°
2026-02-18 06:36 42.41186 11.53994 12838 ft 408 kts 98°
2026-02-18 06:36 42.40685 11.57734 12180 ft 400 kts 99°
2026-02-18 06:37 42.40169 11.61349 11549 ft 393 kts 99°
2026-02-18 06:37 42.39666 11.64960 10914 ft 386 kts 99°
2026-02-18 06:37 42.39186 11.68509 10289 ft 379 kts 99°
2026-02-18 06:37 42.38711 11.71984 9652 ft 372 kts 99°
2026-02-18 06:38 42.38238 11.75392 8985 ft 366 kts 99°
2026-02-18 06:38 42.37775 11.78718 8635 ft 351 kts 99°
2026-02-18 06:38 42.37340 11.81851 8385 ft 334 kts 99°
2026-02-18 06:39 42.36534 11.87646 7963 ft 280 kts 99°
2026-02-18 06:39 42.36189 11.90109 7952 ft 257 kts 99°
2026-02-18 06:39 42.35745 11.92407 7918 ft 252 kts 118°
2026-02-18 06:39 42.34580 11.94154 7872 ft 254 kts 147°
2026-02-18 06:40 42.32964 11.94970 7633 ft 245 kts 168°
2026-02-18 06:40 42.31328 11.95671 7390 ft 245 kts 163°
2026-02-18 06:40 42.29722 11.96406 7132 ft 242 kts 163°
2026-02-18 06:40 42.28139 11.97087 6874 ft 240 kts 164°
2026-02-18 06:41 42.26553 11.97754 6617 ft 238 kts 164°
2026-02-18 06:41 42.24976 11.98423 6390 ft 236 kts 163°
2026-02-18 06:41 42.23413 11.99091 6124 ft 235 kts 163°
2026-02-18 06:41 42.21854 11.99757 5857 ft 234 kts 163°
2026-02-18 06:42 42.20308 12.00416 5601 ft 232 kts 163°
2026-02-18 06:42 42.18766 12.01071 5346 ft 232 kts 164°
2026-02-18 06:42 42.17252 12.01718 5057 ft 230 kts 164°
2026-02-18 06:43 42.14229 12.03008 4525 ft 225 kts 164°
2026-02-18 06:43 42.12761 12.03637 4258 ft 222 kts 163°
2026-02-18 06:43 42.11418 12.04615 3917 ft 225 kts 133°
2026-02-18 06:43 42.10423 12.06277 3729 ft 228 kts 134°
2026-02-18 06:44 42.09302 12.07785 3528 ft 227 kts 136°
2026-02-18 06:44 42.08207 12.09317 3328 ft 226 kts 134°
2026-02-18 06:44 42.07150 12.10876 3119 ft 221 kts 133°
2026-02-18 06:44 42.06163 12.12337 2946 ft 199 kts 133°
2026-02-18 06:45 42.05308 12.13589 2757 ft 170 kts 133°
2026-02-18 06:45 42.04524 12.14731 2546 ft 164 kts 133°
2026-02-18 06:45 42.03762 12.15844 2338 ft 159 kts 133°
2026-02-18 06:45 42.03013 12.16938 2106 ft 158 kts 133°
2026-02-18 06:46 42.02271 12.18021 1884 ft 156 kts 133°
2026-02-18 06:46 42.01509 12.19029 1707 ft 152 kts 143°
2026-02-18 06:46 42.00514 12.19419 1529 ft 149 kts 168°
2026-02-18 06:47 41.98508 12.20301 1542 ft 153 kts 161°
2026-02-18 06:47 41.97493 12.20733 1557 ft 153 kts 161°
2026-02-18 06:47 41.96473 12.21160 1565 ft 154 kts 161°
2026-02-18 06:47 41.95456 12.21592 1603 ft 151 kts 163°
2026-02-18 06:48 41.94456 12.22007 1595 ft 151 kts 164°
2026-02-18 06:48 41.93448 12.22430 1543 ft 151 kts 163°
2026-02-18 06:48 41.92444 12.22852 1438 ft 153 kts 163°
2026-02-18 06:48 41.91428 12.23278 1181 ft 151 kts 162°
2026-02-18 06:49 41.90441 12.23693 1014 ft 148 kts 162°
2026-02-18 06:49 41.89458 12.24103 888 ft 147 kts 161°
2026-02-18 06:49 41.88479 12.24517 781 ft 148 kts 160°
2026-02-18 06:49 41.87490 12.24932 638 ft 149 kts 159°
2026-02-18 06:50 41.86497 12.25350 418 ft 150 kts 160°
2026-02-18 06:50 41.85511 12.25762 240 ft 146 kts 159°
2026-02-18 06:50 41.84561 12.26159 44 ft 142 kts 156°
2026-02-18 06:51 41.83140 12.26762 19 ft 72 kts 163°
2026-02-18 06:51 41.82733 12.26873 27 ft 49 kts 185°
2026-02-18 06:51 41.82454 12.26798 19 ft 17 kts 189°
2026-02-18 06:51 41.82345 12.26785 17 ft 24 kts 177°
2026-02-18 06:52 41.82165 12.26847 15 ft 32 kts 162°
2026-02-18 06:52 41.81946 12.26937 18 ft 33 kts 162°
2026-02-18 06:52 41.81736 12.27024 24 ft 30 kts 162°
2026-02-18 06:52 41.81542 12.27106 25 ft 28 kts 162°
2026-02-18 06:53 41.81357 12.27184 23 ft 28 kts 162°
2026-02-18 06:53 41.81183 12.27257 19 ft 25 kts 163°
2026-02-18 06:53 41.81015 12.27327 17 ft 26 kts 163°
2026-02-18 06:53 41.80825 12.27333 18 ft 28 kts 190°
2026-02-18 06:54 41.80666 12.27246 19 ft 24 kts 231°
2026-02-18 06:54 41.80603 12.27037 21 ft 25 kts 250°
2026-02-18 06:54 41.80543 12.26820 20 ft 25 kts 249°
2026-02-18 06:55 41.80420 12.26373 19 ft 26 kts 250°
2026-02-18 06:55 41.80355 12.26140 20 ft 27 kts 251°
2026-02-18 06:55 41.80291 12.25898 18 ft 28 kts 248°
2026-02-18 06:55 41.80226 12.25662 20 ft 27 kts 250°
2026-02-18 06:56 41.80162 12.25436 24 ft 20 kts 249°
2026-02-18 06:56 41.80060 12.25335 24 ft 19 kts 201°
2026-02-18 06:56 41.80004 12.25233 26 ft 10 kts 216°
2026-02-18 06:56 41.79965 12.25233 28 ft 4 kts 157°
2026-02-18 06:57 41.79954 12.25241 28 ft 1 kts 150°
2026-02-18 06:57 41.79961 12.25235 28 ft 5 kts 153°
2026-02-18 06:57 41.80010 12.25205 29 ft 12 kts 172°
2026-02-18 06:57 41.80016 12.25210 27 ft 10 kts 157°
2026-02-18 06:58 41.79961 12.25234 28 ft 4 kts 161°